| time (UTC) | temp F | wind direction | speed MPH | gust MPH | rain 1hr in | rain 24hr in | rain mn in | humidity % | barometer mb |
| 20260906134635 | 81 | 359 | 1.0 | 1.0 | 0.00 | 0.00 | 0.00 | 90 | 1013.5 |
| 20260906134130 | 82 | 336 | 4.0 | 5.0 | 0.00 | 0.00 | 0.00 | 89 | 1013.4 |
| 20260906133626 | 82 | 340 | 0.0 | 1.0 | 0.00 | 0.00 | 0.00 | 89 | 1013.6 |
| 20260906133120 | 81 | 28 | 0.0 | 0.0 | 0.00 | 0.00 | 0.00 | 91 | 1013.4 |
| 20260906132615 | 79 | 329 | 2.0 | 2.0 | 0.00 | 0.00 | 0.00 | 93 | 1013.6 |
| 20260906132111 | 79 | 339 | 2.0 | 2.0 | 0.00 | 0.00 | 0.00 | 94 | 1013.6 |
| 20260906131607 | 78 | 326 | 1.0 | 2.0 | 0.00 | 0.00 | 0.00 | 95 | 1013.5 |
| 20260906131101 | 78 | 324 | 3.0 | 5.0 | 0.00 | 0.00 | 0.00 | 96 | 1013.4 |
| 20260906130555 | 77 | 357 | 2.0 | 2.0 | 0.00 | 0.00 | 0.00 | 98 | 1013.6 |
| 20260906130051 | 77 | 352 | 1.0 | 1.0 | 0.00 | 0.00 | 0.00 | 99 | 1013.4 |
| 20260906125548 | 76 | 6 | 0.0 | 0.0 | 0.00 | 0.00 | 0.00 | 99 | 1013.6 |
| 20260906125048 | 76 | 15 | 0.0 | 0.0 | 0.00 | 0.00 | 0.00 | 99 | 1013.5 |
| 20260906124543 | 75 | 22 | 0.0 | 0.0 | 0.00 | 0.00 | 0.00 | 99 | 1013.6 |
| 20260906124038 | 75 | 306 | 1.0 | 2.0 | 0.00 | 0.00 | 0.00 | 99 | 1013.6 |
| 20260906123537 | 75 | 17 | 0.0 | 1.0 | 0.00 | 0.00 | 0.00 | 99 | 1013.6 |
| 20260906123033 | 74 | 347 | 0.0 | 0.0 | 0.00 | 0.00 | 0.00 | 99 | 1013.5 |
| 20260906122532 | 74 | 15 | 1.0 | 1.0 | 0.00 | 0.00 | 0.00 | 99 | 1013.6 |
| 20260906122029 | 75 | 31 | 0.0 | 1.0 | 0.00 | 0.00 | 0.00 | 99 | 1013.4 |
| 20260906121525 | 74 | 14 | 0.0 | 0.0 | 0.00 | 0.00 | 0.00 | 99 | 1013.5 |
| 20260906121021 | 74 | 27 | 1.0 | 1.0 | 0.00 | 0.00 | 0.00 | 99 | 1013.6 |
| 20260906120516 | 74 | 23 | 0.0 | 1.0 | 0.00 | 0.00 | 0.00 | 99 | 1013.5 |
| 20260906120014 | 74 | 21 | 0.0 | 0.0 | 0.00 | 0.00 | 0.00 | 99 | 1013.6 |
| 20260906115514 | 74 | 21 | 1.0 | 1.0 | 0.00 | 0.00 | 0.00 | 99 | 1013.6 |
| 20260906115013 | 74 | 11 | 0.0 | 0.0 | 0.00 | 0.00 | 0.00 | 99 | 1013.5 |
| 20260906114508 | 74 | 18 | 1.0 | 1.0 | 0.00 | 0.00 | 0.00 | 99 | 1013.4 |
| 20260906114004 | 74 | 5 | 0.0 | 0.0 | 0.00 | 0.00 | 0.00 | 99 | 1013.1 |
| 20260906113502 | 74 | 16 | 0.0 | 0.0 | 0.00 | 0.00 | 0.00 | 99 | 1013.2 |
| 20260906112958 | 74 | 2 | 0.0 | 0.0 | 0.00 | 0.00 | 0.00 | 99 | 1013.2 |
| 20260906112453 | 74 | 330 | 0.0 | 0.0 | 0.00 | 0.00 | 0.00 | 99 | 1013.2 |
| 20260906111949 | 74 | 2 | 0.0 | 0.0 | 0.00 | 0.00 | 0.00 | 99 | 1013.2 |
| 20260906111448 | 74 | 42 | 1.0 | 1.0 | 0.00 | 0.00 | 0.00 | 99 | 1013.2 |
| 20260906110943 | 74 | 40 | 1.0 | 1.0 | 0.00 | 0.00 | 0.00 | 99 | 1013.1 |
| 20260906110439 | 73 | 18 | 0.0 | 0.0 | 0.00 | 0.00 | 0.00 | 99 | 1013.1 |
| 20260906105937 | 73 | 14 | 0.0 | 0.0 | 0.00 | 0.00 | 0.00 | 99 | 1013.1 |
| 20260906105433 | 73 | 24 | 0.0 | 0.0 | 0.00 | 0.00 | 0.00 | 99 | 1013.0 |
| 20260906104930 | 73 | 17 | 0.0 | 0.0 | 0.00 | 0.00 | 0.00 | 99 | 1012.9 |
| 20260906104428 | 73 | 21 | 0.0 | 0.0 | 0.00 | 0.00 | 0.00 | 99 | 1012.9 |
| 20260906103927 | 73 | 16 | 0.0 | 0.0 | 0.00 | 0.00 | 0.00 | 99 | 1012.9 |
| 20260906103426 | 73 | 9 | 0.0 | 0.0 | 0.00 | 0.00 | 0.00 | 99 | 1012.7 |
| 20260906102921 | 73 | 78 | 1.0 | 1.0 | 0.00 | 0.00 | 0.00 | 99 | 1012.7 |
| 20260906102421 | 75 | 163 | 1.0 | 2.0 | 0.00 | 0.00 | 0.00 | 99 | 1012.7 |
| 20260906101915 | 74 | 1 | 0.0 | 0.0 | 0.00 | 0.00 | 0.00 | 99 | 1012.7 |
| 20260906101411 | 74 | 12 | 0.0 | 0.0 | 0.00 | 0.00 | 0.00 | 99 | 1012.6 |
| 20260906100906 | 74 | 15 | 0.0 | 0.0 | 0.00 | 0.00 | 0.00 | 99 | 1012.7 |
| 20260906100406 | 74 | 10 | 0.0 | 0.0 | 0.00 | 0.00 | 0.00 | 99 | 1012.8 |
| 20260906095901 | 74 | 15 | 0.0 | 0.0 | 0.00 | 0.00 | 0.00 | 99 | 1012.7 |
| 20260906095356 | 73 | 10 | 0.0 | 0.0 | 0.00 | 0.00 | 0.00 | 99 | 1012.7 |
| 20260906094855 | 74 | 42 | 1.0 | 1.0 | 0.00 | 0.00 | 0.00 | 99 | 1012.8 |
| 20260906094351 | 74 | 30 | 0.0 | 1.0 | 0.00 | 0.00 | 0.00 | 99 | 1012.5 |
| 20260906093847 | 74 | 25 | 0.0 | 0.0 | 0.00 | 0.00 | 0.00 | 99 | 1012.7 |
| 20260906093343 | 74 | 6 | 0.0 | 0.0 | 0.00 | 0.00 | 0.00 | 99 | 1012.7 |
| 20260906092843 | 74 | 13 | 0.0 | 0.0 | 0.00 | 0.00 | 0.00 | 99 | 1012.7 |
| 20260906092337 | 74 | 7 | 0.0 | 0.0 | 0.00 | 0.00 | 0.00 | 99 | 1012.6 |
| 20260906091833 | 74 | 7 | 0.0 | 0.0 | 0.00 | 0.00 | 0.00 | 99 | 1012.7 |
| 20260906091329 | 74 | 11 | 0.0 | 1.0 | 0.00 | 0.00 | 0.00 | 99 | 1012.6 |
| 20260906090825 | 73 | 354 | 1.0 | 1.0 | 0.00 | 0.00 | 0.00 | 99 | 1012.5 |
| 20260906090324 | 73 | 1 | 0.0 | 0.0 | 0.00 | 0.00 | 0.00 | 99 | 1012.6 |
| 20260906085818 | 74 | 13 | 0.0 | 1.0 | 0.00 | 0.00 | 0.00 | 99 | 1012.3 |
| 20260906085317 | 73 | 16 | 0.0 | 0.0 | 0.00 | 0.00 | 0.00 | 99 | 1012.5 |
| 20260906084812 | 73 | 25 | 0.0 | 1.0 | 0.00 | 0.00 | 0.00 | 99 | 1012.4 |
| 20260906084312 | 73 | 25 | 1.0 | 1.0 | 0.00 | 0.00 | 0.00 | 99 | 1012.5 |
| 20260906083807 | 73 | 346 | 1.0 | 1.0 | 0.00 | 0.00 | 0.00 | 99 | 1012.4 |
| 20260906083302 | 73 | 15 | 0.0 | 1.0 | 0.00 | 0.00 | 0.00 | 99 | 1012.4 |
| 20260906082757 | 73 | 357 | 1.0 | 1.0 | 0.00 | 0.00 | 0.00 | 99 | 1012.4 |
| 20260906082252 | 73 | 14 | 1.0 | 1.0 | 0.00 | 0.00 | 0.00 | 99 | 1012.3 |
| 20260906081748 | 73 | 16 | 0.0 | 0.0 | 0.00 | 0.00 | 0.00 | 99 | 1012.4 |
| 20260906081243 | 73 | 23 | 1.0 | 1.0 | 0.00 | 0.00 | 0.00 | 99 | 1012.4 |
| 20260906080739 | 73 | 26 | 1.0 | 1.0 | 0.00 | 0.00 | 0.00 | 99 | 1012.2 |
| 20260906080236 | 73 | 33 | 1.0 | 1.0 | 0.00 | 0.00 | 0.00 | 99 | 1012.3 |
| 20260906075736 | 73 | 15 | 0.0 | 0.0 | 0.00 | 0.00 | 0.00 | 99 | 1012.3 |
| 20260906075235 | 74 | 16 | 1.0 | 1.0 | 0.00 | 0.00 | 0.00 | 99 | 1012.4 |
| 20260906074731 | 73 | 3 | 0.0 | 1.0 | 0.00 | 0.00 | 0.00 | 99 | 1012.3 |
| 20260906074230 | 74 | 16 | 0.0 | 1.0 | 0.00 | 0.00 | 0.00 | 99 | 1012.2 |
| 20260906073730 | 73 | 23 | 1.0 | 1.0 | 0.00 | 0.00 | 0.00 | 99 | 1012.3 |
| 20260906073225 | 73 | 11 | 0.0 | 0.0 | 0.00 | 0.00 | 0.00 | 99 | 1012.0 |
| 20260906072721 | 73 | 22 | 0.0 | 1.0 | 0.00 | 0.00 | 0.00 | 99 | 1012.1 |
| 20260906072216 | 74 | 24 | 1.0 | 1.0 | 0.00 | 0.00 | 0.00 | 99 | 1012.3 |
| 20260906071712 | 74 | 14 | 0.0 | 0.0 | 0.00 | 0.00 | 0.00 | 99 | 1012.3 |
| 20260906071212 | 74 | 42 | 1.0 | 1.0 | 0.00 | 0.00 | 0.00 | 99 | 1012.5 |
| 20260906070708 | 74 | 18 | 0.0 | 0.0 | 0.00 | 0.00 | 0.00 | 99 | 1012.3 |
| 20260906070204 | 74 | 15 | 0.0 | 0.0 | 0.00 | 0.00 | 0.00 | 99 | 1012.4 |
| 20260906065703 | 74 | 13 | 1.0 | 1.0 | 0.00 | 0.00 | 0.00 | 99 | 1012.5 |
| 20260906065159 | 74 | 16 | 1.0 | 1.0 | 0.00 | 0.00 | 0.00 | 99 | 1012.6 |
| 20260906064654 | 74 | 22 | 1.0 | 1.0 | 0.00 | 0.00 | 0.00 | 99 | 1012.6 |
| 20260906064149 | 74 | 18 | 0.0 | 0.0 | 0.00 | 0.00 | 0.00 | 99 | 1012.7 |
| 20260906063644 | 74 | 18 | 0.0 | 0.0 | 0.00 | 0.00 | 0.00 | 99 | 1012.6 |
| 20260906063140 | 74 | 16 | 0.0 | 1.0 | 0.00 | 0.00 | 0.00 | 99 | 1012.9 |
| 20260906062636 | 74 | 11 | 0.0 | 0.0 | 0.00 | 0.00 | 0.00 | 99 | 1012.8 |
| 20260906062134 | 74 | 49 | 1.0 | 1.0 | 0.00 | 0.00 | 0.00 | 99 | 1012.9 |
| 20260906061631 | 74 | 48 | 1.0 | 1.0 | 0.00 | 0.00 | 0.00 | 99 | 1012.7 |
| 20260906061130 | 74 | 9 | 0.0 | 0.0 | 0.00 | 0.00 | 0.00 | 99 | 1012.7 |
| 20260906060627 | 74 | 6 | 0.0 | 0.0 | 0.00 | 0.00 | 0.00 | 99 | 1012.9 |
| 20260906060125 | 74 | 89 | 1.0 | 1.0 | 0.00 | 0.00 | 0.00 | 99 | 1012.7 |
| 20260906055620 | 74 | 16 | 0.0 | 0.0 | 0.00 | 0.00 | 0.00 | 99 | 1013.0 |
| 20260906055115 | 75 | 16 | 0.0 | 1.0 | 0.00 | 0.00 | 0.00 | 99 | 1013.0 |
| 20260906054610 | 75 | 13 | 0.0 | 0.0 | 0.00 | 0.00 | 0.00 | 99 | 1012.9 |
| 20260906054105 | 75 | 9 | 0.0 | 0.0 | 0.00 | 0.00 | 0.00 | 99 | 1012.8 |
| 20260906053602 | 75 | 12 | 0.0 | 0.0 | 0.00 | 0.00 | 0.00 | 99 | 1012.8 |
| 20260906053057 | 75 | 23 | 1.0 | 1.0 | 0.00 | 0.00 | 0.00 | 99 | 1013.1 |
| 20260906052552 | 75 | 21 | 0.0 | 1.0 | 0.00 | 0.00 | 0.00 | 99 | 1013.0 |
| 20260906052049 | 75 | 17 | 0.0 | 0.0 | 0.00 | 0.00 | 0.00 | 99 | 1012.9 |
| 20260906051544 | 75 | 30 | 1.0 | 1.0 | 0.00 | 0.00 | 0.00 | 99 | 1013.0 |
| 20260906051040 | 76 | 132 | 2.0 | 2.0 | 0.00 | 0.00 | 0.00 | 99 | 1012.9 |
| 20260906050535 | 76 | 20 | 1.0 | 1.0 | 0.00 | 0.00 | 0.00 | 99 | 1013.0 |
| 20260906050030 | 76 | 6 | 0.0 | 0.0 | 0.00 | 0.00 | 0.00 | 99 | 1013.0 |
| 20260906045528 | 76 | 28 | 1.0 | 1.0 | 0.00 | 0.00 | 0.00 | 99 | 1013.2 |
| 20260906045024 | 77 | 359 | 0.0 | 1.0 | 0.00 | 0.00 | 0.00 | 99 | 1012.8 |
| 20260906044519 | 76 | 57 | 1.0 | 1.0 | 0.00 | 0.00 | 0.00 | 98 | 1012.7 |
| 20260906044015 | 76 | 17 | 0.0 | 0.0 | 0.00 | 0.00 | 0.00 | 98 | 1013.1 |
| 20260906043510 | 76 | 23 | 0.0 | 1.0 | 0.00 | 0.00 | 0.00 | 99 | 1013.2 |
| 20260906043007 | 76 | 7 | 0.0 | 0.0 | 0.00 | 0.00 | 0.00 | 99 | 1013.1 |
| 20260906042505 | 76 | 357 | 0.0 | 0.0 | 0.00 | 0.00 | 0.00 | 99 | 1013.3 |
| 20260906042005 | 76 | 18 | 1.0 | 1.0 | 0.00 | 0.00 | 0.00 | 99 | 1013.1 |
| 20260906041501 | 76 | 42 | 2.0 | 2.0 | 0.00 | 0.00 | 0.00 | 99 | 1013.1 |
| 20260906041001 | 77 | 23 | 1.0 | 1.0 | 0.00 | 0.00 | 0.00 | 99 | 1012.8 |
| 20260906040456 | 77 | 347 | 0.0 | 1.0 | 0.00 | 0.00 | 0.00 | 99 | 1012.7 |
| 20260906035952 | 76 | 2 | 0.0 | 0.0 | 0.00 | 0.17 | 0.17 | 99 | 1012.6 |
| 20260906035447 | 77 | 21 | 1.0 | 1.0 | 0.00 | 0.17 | 0.17 | 98 | 1012.6 |
| 20260906034943 | 77 | 4 | 1.0 | 1.0 | 0.00 | 0.17 | 0.17 | 98 | 1012.7 |
| 20260906034442 | 77 | 22 | 0.0 | 1.0 | 0.00 | 0.17 | 0.17 | 98 | 1012.7 |
| 20260906033938 | 77 | 14 | 0.0 | 0.0 | 0.00 | 0.17 | 0.17 | 98 | 1012.8 |
| 20260906033438 | 77 | 13 | 0.0 | 0.0 | 0.00 | 0.17 | 0.17 | 98 | 1013.0 |
| 20260906032934 | 77 | 15 | 1.0 | 2.0 | 0.00 | 0.17 | 0.17 | 98 | 1012.8 |
| 20260906032431 | 77 | 7 | 1.0 | 1.0 | 0.00 | 0.17 | 0.17 | 98 | 1012.8 |
| 20260906031930 | 77 | 330 | 1.0 | 1.0 | 0.00 | 0.17 | 0.17 | 98 | 1012.9 |
| 20260906031426 | 77 | 333 | 0.0 | 1.0 | 0.00 | 0.17 | 0.17 | 98 | 1013.2 |
| 20260906030921 | 77 | 5 | 0.0 | 0.0 | 0.00 | 0.17 | 0.17 | 98 | 1013.3 |
| 20260906030415 | 77 | 15 | 1.0 | 1.0 | 0.00 | 0.17 | 0.17 | 97 | 1013.6 |
| 20260906025910 | 77 | 21 | 1.0 | 1.0 | 0.00 | 0.17 | 0.17 | 97 | 1013.5 |
| 20260906025404 | 77 | 19 | 1.0 | 1.0 | 0.00 | 0.17 | 0.17 | 97 | 1013.5 |
| 20260906024903 | 77 | 25 | 1.0 | 1.0 | 0.00 | 0.17 | 0.17 | 97 | 1013.5 |
| 20260906024402 | 77 | 10 | 0.0 | 0.0 | 0.00 | 0.17 | 0.17 | 97 | 1013.6 |
| 20260906023858 | 77 | 18 | 1.0 | 1.0 | 0.00 | 0.17 | 0.17 | 97 | 1013.7 |
| 20260906023354 | 77 | 17 | 0.0 | 0.0 | 0.00 | 0.17 | 0.17 | 97 | 1013.8 |
| 20260906022854 | 78 | 25 | 0.0 | 0.0 | 0.00 | 0.17 | 0.17 | 97 | 1013.7 |
| 20260906022349 | 78 | 21 | 1.0 | 1.0 | 0.00 | 0.17 | 0.17 | 96 | 1013.9 |
| 20260906021845 | 78 | 24 | 1.0 | 1.0 | 0.00 | 0.17 | 0.17 | 96 | 1013.6 |
| 20260906021344 | 78 | 314 | 0.0 | 1.0 | 0.00 | 0.17 | 0.17 | 96 | 1013.7 |
| 20260906020839 | 78 | 27 | 0.0 | 1.0 | 0.00 | 0.17 | 0.17 | 98 | 1013.9 |
| 20260906020338 | 78 | 343 | 0.0 | 0.0 | 0.00 | 0.17 | 0.17 | 97 | 1013.9 |
| 20260906015834 | 78 | 11 | 0.0 | 0.0 | 0.00 | 0.17 | 0.17 | 97 | 1013.7 |
| 20260906015333 | 78 | 14 | 0.0 | 0.0 | 0.00 | 0.17 | 0.17 | 97 | 1013.7 |
| 20260906014832 | 78 | 7 | 0.0 | 0.0 | 0.00 | 0.17 | 0.17 | 97 | 1013.7 |
| 20260906014327 | 78 | 33 | 1.0 | 1.0 | 0.00 | 0.17 | 0.17 | 96 | 1013.5 |
| 20260906013824 | 78 | 288 | 4.0 | 5.0 | 0.00 | 0.17 | 0.17 | 98 | 1013.6 |
| 20260906013319 | 78 | 3 | 1.0 | 1.0 | 0.00 | 0.17 | 0.17 | 99 | 1013.5 |
| 20260906012815 | 78 | 11 | 0.0 | 0.0 | 0.00 | 0.17 | 0.17 | 99 | 1013.1 |
| 20260906012314 | 78 | 25 | 0.0 | 0.0 | 0.00 | 0.17 | 0.17 | 99 | 1012.9 |
| 20260906011809 | 78 | 10 | 1.0 | 1.0 | 0.00 | 0.17 | 0.17 | 99 | 1013.0 |
| 20260906011309 | 78 | 29 | 1.0 | 1.0 | 0.00 | 0.17 | 0.17 | 99 | 1012.7 |
| 20260906010805 | 78 | 30 | 0.0 | 1.0 | 0.00 | 0.17 | 0.17 | 98 | 1012.6 |
| 20260906010301 | 78 | 40 | 0.0 | 0.0 | 0.00 | 0.17 | 0.17 | 99 | 1012.4 |
| 20260906005756 | 78 | 53 | 1.0 | 1.0 | 0.00 | 0.17 | 0.17 | 99 | 1012.2 |
| 20260906005255 | 78 | 35 | 0.0 | 1.0 | 0.00 | 0.17 | 0.17 | 99 | 1012.1 |
| 20260906004754 | 79 | 16 | 0.0 | 0.0 | 0.00 | 0.17 | 0.17 | 99 | 1012.3 |
| 20260906004249 | 79 | 22 | 1.0 | 1.0 | 0.00 | 0.17 | 0.17 | 98 | 1012.4 |
| 20260906003749 | 79 | 18 | 1.0 | 1.0 | 0.00 | 0.17 | 0.17 | 98 | 1012.1 |
| 20260906003245 | 79 | 17 | 0.0 | 0.0 | 0.00 | 0.17 | 0.17 | 98 | 1012.0 |
| 20260906002740 | 79 | 33 | 0.0 | 1.0 | 0.00 | 0.17 | 0.17 | 98 | 1012.2 |
| 20260906002240 | 79 | 33 | 0.0 | 0.0 | 0.00 | 0.17 | 0.17 | 98 | 1012.2 |
| 20260906001736 | 79 | 25 | 1.0 | 1.0 | 0.00 | 0.17 | 0.17 | 98 | 1012.1 |
| 20260906001231 | 79 | 33 | 0.0 | 1.0 | 0.00 | 0.17 | 0.17 | 97 | 1011.9 |
| 20260906000726 | 79 | 25 | 0.0 | 0.0 | 0.00 | 0.17 | 0.17 | 97 | 1011.9 |
| 20260906000226 | 80 | 16 | 0.0 | 1.0 | 0.00 | 0.17 | 0.17 | 97 | 1012.0 |
| 20260905235721 | 80 | 20 | 0.0 | 1.0 | 0.00 | 0.17 | 0.17 | 97 | 1012.0 |
| 20260905235215 | 80 | 21 | 0.0 | 1.0 | 0.00 | 0.17 | 0.17 | 96 | 1012.1 |
| 20260905234711 | 80 | 19 | 0.0 | 0.0 | 0.00 | 0.17 | 0.17 | 95 | 1012.2 |
| 20260905234206 | 80 | 27 | 0.0 | 0.0 | 0.00 | 0.17 | 0.17 | 95 | 1012.2 |
| 20260905233701 | 80 | 22 | 0.0 | 0.0 | 0.00 | 0.17 | 0.17 | 95 | 1012.2 |
| 20260905233201 | 80 | 27 | 0.0 | 0.0 | 0.00 | 0.17 | 0.17 | 94 | 1012.0 |
| 20260905232656 | 80 | 22 | 0.0 | 1.0 | 0.00 | 0.17 | 0.17 | 94 | 1012.3 |
| 20260905232152 | 81 | 21 | 0.0 | 1.0 | 0.00 | 0.17 | 0.17 | 93 | 1012.2 |
| 20260905231647 | 81 | 53 | 1.0 | 1.0 | 0.00 | 0.17 | 0.17 | 92 | 1012.0 |
| 20260905231143 | 82 | 185 | 1.0 | 2.0 | 0.00 | 0.17 | 0.17 | 90 | 1012.2 |
| 20260905230638 | 82 | 310 | 0.0 | 0.0 | 0.00 | 0.17 | 0.17 | 89 | 1012.2 |
| 20260905230137 | 82 | 325 | 1.0 | 1.0 | 0.00 | 0.17 | 0.17 | 90 | 1012.3 |
| 20260905225636 | 82 | 240 | 1.0 | 2.0 | 0.00 | 0.17 | 0.17 | 88 | 1012.3 |
| 20260905225137 | 82 | 313 | 0.0 | 1.0 | 0.00 | 0.17 | 0.17 | 89 | 1012.4 |
| 20260905224636 | 82 | 305 | 1.0 | 1.0 | 0.00 | 0.17 | 0.17 | 87 | 1012.2 |
| 20260905224136 | 82 | 316 | 0.0 | 1.0 | 0.00 | 0.17 | 0.17 | 87 | 1012.3 |
| 20260905223633 | 81 | 327 | 0.0 | 0.0 | 0.00 | 0.17 | 0.17 | 89 | 1012.4 |
| 20260905223129 | 81 | 293 | 0.0 | 1.0 | 0.00 | 0.17 | 0.17 | 88 | 1012.4 |
| 20260905222625 | 82 | 291 | 2.0 | 2.0 | 0.00 | 0.17 | 0.17 | 88 | 1012.5 |
| 20260905222119 | 81 | 259 | 2.0 | 2.0 | 0.00 | 0.17 | 0.17 | 88 | 1012.5 |
| 20260905221615 | 82 | 231 | 2.0 | 2.0 | 0.00 | 0.17 | 0.17 | 88 | 1012.4 |
| 20260905221112 | 82 | 218 | 2.0 | 2.0 | 0.00 | 0.17 | 0.17 | 88 | 1012.4 |
| 20260905220607 | 82 | 239 | 2.0 | 2.0 | 0.00 | 0.17 | 0.17 | 86 | 1012.5 |
| 20260905220103 | 82 | 294 | 1.0 | 1.0 | 0.00 | 0.17 | 0.17 | 84 | 1012.3 |
| 20260905215602 | 82 | 225 | 3.0 | 3.0 | 0.00 | 0.17 | 0.17 | 85 | 1012.2 |
| 20260905215058 | 82 | 247 | 3.0 | 3.0 | 0.00 | 0.17 | 0.17 | 84 | 1012.1 |
| 20260905214554 | 83 | 339 | 2.0 | 2.0 | 0.00 | 0.17 | 0.17 | 82 | 1012.2 |
| 20260905214048 | 83 | 316 | 3.0 | 5.0 | 0.00 | 0.17 | 0.17 | 83 | 1012.4 |
| 20260905213543 | 82 | 328 | 0.0 | 0.0 | 0.00 | 0.17 | 0.17 | 84 | 1012.5 |
| 20260905213040 | 81 | 266 | 2.0 | 2.0 | 0.00 | 0.17 | 0.17 | 86 | 1012.4 |
| 20260905212540 | 81 | 288 | 2.0 | 2.0 | 0.00 | 0.17 | 0.17 | 86 | 1012.5 |
| 20260905212039 | 82 | 304 | 3.0 | 3.0 | 0.00 | 0.17 | 0.17 | 86 | 1012.5 |
| 20260905211534 | 82 | 318 | 0.0 | 0.0 | 0.00 | 0.17 | 0.17 | 85 | 1012.5 |
| 20260905211030 | 82 | 315 | 3.0 | 3.0 | 0.00 | 0.17 | 0.17 | 85 | 1012.5 |
| 20260905210526 | 81 | 314 | 1.0 | 1.0 | 0.00 | 0.17 | 0.17 | 85 | 1012.5 |
| 20260905210025 | 80 | 333 | 2.0 | 2.0 | 0.00 | 0.17 | 0.17 | 86 | 1012.5 |
| 20260905205525 | 81 | 337 | 1.0 | 2.0 | 0.00 | 0.17 | 0.17 | 86 | 1012.6 |
| 20260905205024 | 81 | 312 | 3.0 | 3.0 | 0.00 | 0.17 | 0.17 | 85 | 1012.7 |
| 20260905204519 | 80 | 332 | 1.0 | 1.0 | 0.00 | 0.17 | 0.17 | 86 | 1012.6 |
| 20260905204014 | 80 | 306 | 0.0 | 1.0 | 0.00 | 0.17 | 0.17 | 86 | 1012.7 |
| 20260905203509 | 80 | 350 | 0.0 | 0.0 | 0.00 | 0.17 | 0.17 | 87 | 1012.6 |
| 20260905203004 | 79 | 333 | 1.0 | 2.0 | 0.00 | 0.17 | 0.17 | 86 | 1012.8 |
| 20260905202500 | 79 | 339 | 0.0 | 1.0 | 0.00 | 0.17 | 0.17 | 87 | 1012.9 |
| 20260905201955 | 79 | 343 | 3.0 | 3.0 | 0.00 | 0.17 | 0.17 | 87 | 1012.7 |
| 20260905201450 | 79 | 8 | 0.0 | 0.0 | 0.00 | 0.17 | 0.17 | 90 | 1013.0 |
| 20260905200949 | 79 | 17 | 1.0 | 1.0 | 0.00 | 0.17 | 0.17 | 89 | 1012.9 |
| 20260905200446 | 78 | 7 | 1.0 | 1.0 | 0.00 | 0.17 | 0.17 | 89 | 1012.9 |
| 20260905195944 | 78 | 319 | 1.0 | 1.0 | 0.00 | 0.17 | 0.17 | 90 | 1013.3 |
| 20260905195439 | 78 | 123 | 1.0 | 1.0 | 0.00 | 0.17 | 0.17 | 90 | 1013.4 |
| 20260905194935 | 78 | 5 | 1.0 | 1.0 | 0.00 | 0.17 | 0.17 | 91 | 1013.3 |
| 20260905194434 | 78 | 23 | 0.0 | 1.0 | 0.00 | 0.17 | 0.17 | 92 | 1013.4 |
| 20260905193929 | 77 | 355 | 0.0 | 0.0 | 0.00 | 0.17 | 0.17 | 95 | 1013.5 |
| 20260905193424 | 77 | 315 | 0.0 | 1.0 | 0.00 | 0.17 | 0.17 | 97 | 1013.9 |
| 20260905192919 | 77 | 178 | 3.0 | 3.0 | 0.00 | 0.17 | 0.17 | 99 | 1014.2 |
| 20260905192415 | 77 | 148 | 3.0 | 3.0 | 0.00 | 0.17 | 0.17 | 99 | 1014.5 |
| 20260905191915 | 77 | 182 | 4.0 | 5.0 | 0.00 | 0.17 | 0.17 | 99 | 1014.8 |
| 20260905191413 | 76 | 192 | 2.0 | 3.0 | 0.00 | 0.17 | 0.17 | 99 | 1014.7 |
| 20260905190908 | 76 | 178 | 5.0 | 6.0 | 0.00 | 0.17 | 0.17 | 99 | 1015.1 |
| 20260905190406 | 76 | 174 | 5.0 | 7.0 | 0.00 | 0.17 | 0.17 | 99 | 1015.5 |
| 20260905185905 | 77 | 177 | 2.0 | 2.0 | 0.00 | 0.17 | 0.17 | 99 | 1015.4 |
| 20260905185400 | 76 | 44 | 0.0 | 0.0 | 0.00 | 0.17 | 0.17 | 99 | 1015.3 |
| 20260905184859 | 77 | 70 | 3.0 | 3.0 | 0.00 | 0.17 | 0.17 | 99 | 1015.3 |
| 20260905184358 | 77 | 186 | 3.0 | 5.0 | 0.00 | 0.17 | 0.17 | 99 | 1015.1 |
| 20260905183856 | 77 | 133 | 2.0 | 2.0 | 0.00 | 0.17 | 0.17 | 99 | 1014.9 |
| 20260905183352 | 77 | 166 | 4.0 | 5.0 | 0.00 | 0.17 | 0.17 | 99 | 1014.7 |
| 20260905182847 | 77 | 173 | 1.0 | 1.0 | 0.00 | 0.17 | 0.17 | 99 | 1014.6 |
| 20260905182347 | 77 | 235 | 3.0 | 6.0 | 0.00 | 0.17 | 0.17 | 97 | 1014.6 |
| 20260905181837 | 77 | 95 | 1.0 | 2.0 | 0.00 | 0.17 | 0.17 | 96 | 1014.6 |
| 20260905181336 | 77 | 316 | 0.0 | 0.0 | 0.00 | 0.17 | 0.17 | 96 | 1014.7 |
| 20260905180835 | 77 | 354 | 2.0 | 2.0 | 0.00 | 0.17 | 0.17 | 96 | 1014.9 |
| 20260905180331 | 77 | 300 | 3.0 | 5.0 | 0.00 | 0.17 | 0.17 | 96 | 1014.8 |
| 20260905175825 | 77 | 327 | 5.0 | 6.0 | 0.00 | 0.17 | 0.17 | 96 | 1015.0 |
| 20260905175320 | 78 | 272 | 3.0 | 3.0 | 0.00 | 0.17 | 0.17 | 98 | 1014.9 |
| 20260905174815 | 78 | 1 | 3.0 | 3.0 | 0.00 | 0.17 | 0.17 | 98 | 1014.9 |
| 20260905174311 | 77 | 162 | 1.0 | 2.0 | 0.00 | 0.17 | 0.17 | 97 | 1014.7 |
| 20260905173807 | 77 | 212 | 3.0 | 3.0 | 0.07 | 0.17 | 0.17 | 97 | 1014.5 |
| 20260905173303 | 77 | 246 | 3.0 | 3.0 | 0.07 | 0.17 | 0.17 | 97 | 1014.8 |
| 20260905172803 | 77 | 131 | 3.0 | 3.0 | 0.00 | 0.16 | 0.16 | 98 | 1014.9 |
| 20260905172300 | 77 | 349 | 0.0 | 1.0 | 0.12 | 0.16 | 0.16 | 99 | 1015.0 |
| 20260905171757 | 77 | 82 | 2.0 | 2.0 | 0.35 | 0.16 | 0.16 | 98 | 1015.1 |
| 20260905171253 | 77 | 84 | 2.0 | 2.0 | 0.35 | 0.14 | 0.14 | 97 | 1015.0 |
| 20260905170749 | 77 | 31 | 0.0 | 0.0 | 0.31 | 0.10 | 0.10 | 96 | 1015.1 |
| 20260905170245 | 78 | 258 | 2.0 | 3.0 | 0.19 | 0.08 | 0.08 | 95 | 1015.3 |
| 20260905165743 | 79 | 188 | 4.0 | 7.0 | 0.19 | 0.06 | 0.06 | 93 | 1015.1 |
| 20260905165240 | 81 | 73 | 1.0 | 2.0 | 0.31 | 0.05 | 0.05 | 90 | 1014.9 |
| 20260905164739 | 83 | 72 | 2.0 | 2.0 | 0.19 | 0.03 | 0.03 | 87 | 1015.4 |
| 20260905164234 | 86 | 81 | 2.0 | 2.0 | 0.00 | 0.00 | 0.00 | 84 | 1015.4 |
| 20260905163730 | 86 | 205 | 3.0 | 5.0 | 0.00 | 0.00 | 0.00 | 83 | 1015.0 |
| 20260905163226 | 86 | 125 | 1.0 | 1.0 | 0.00 | 0.00 | 0.00 | 84 | 1015.1 |
| 20260905162722 | 86 | 213 | 7.0 | 8.0 | 0.00 | 0.00 | 0.00 | 82 | 1015.0 |
| 20260905162221 | 86 | 198 | 5.0 | 6.0 | 0.00 | 0.00 | 0.00 | 82 | 1015.1 |
| 20260905161716 | 86 | 234 | 6.0 | 7.0 | 0.00 | 0.00 | 0.00 | 83 | 1014.9 |
| 20260905161215 | 86 | 188 | 6.0 | 7.0 | 0.00 | 0.00 | 0.00 | 82 | 1015.2 |
| 20260905160713 | 86 | 155 | 4.0 | 5.0 | 0.00 | 0.00 | 0.00 | 82 | 1015.2 |
| 20260905160208 | 86 | 157 | 3.0 | 3.0 | 0.00 | 0.00 | 0.00 | 83 | 1015.3 |
| 20260905155708 | 86 | 246 | 3.0 | 3.0 | 0.00 | 0.00 | 0.00 | 83 | 1015.1 |
| 20260905155207 | 86 | 268 | 1.0 | 2.0 | 0.00 | 0.00 | 0.00 | 83 | 1015.0 |
| 20260905154702 | 85 | 256 | 1.0 | 2.0 | 0.00 | 0.00 | 0.00 | 85 | 1015.0 |
| 20260905154157 | 85 | 196 | 3.0 | 3.0 | 0.00 | 0.00 | 0.00 | 86 | 1015.1 |
| 20260905153653 | 85 | 223 | 4.0 | 5.0 | 0.00 | 0.00 | 0.00 | 85 | 1015.1 |
| 20260905153148 | 84 | 299 | 0.0 | 1.0 | 0.00 | 0.00 | 0.00 | 87 | 1015.3 |
| 20260905152642 | 84 | 280 | 3.0 | 3.0 | 0.00 | 0.00 | 0.00 | 87 | 1015.1 |
| 20260905152137 | 83 | 284 | 1.0 | 1.0 | 0.00 | 0.00 | 0.00 | 88 | 1015.1 |
| 20260905151632 | 83 | 295 | 1.0 | 1.0 | 0.00 | 0.00 | 0.00 | 88 | 1015.3 |
| 20260905151128 | 83 | 165 | 4.0 | 5.0 | 0.00 | 0.00 | 0.00 | 89 | 1015.1 |
| 20260905150623 | 83 | 306 | 0.0 | 0.0 | 0.00 | 0.00 | 0.00 | 88 | 1015.1 |
| 20260905150121 | 82 | 146 | 3.0 | 3.0 | 0.00 | 0.00 | 0.00 | 90 | 1015.6 |
| 20260905145620 | 82 | 229 | 2.0 | 2.0 | 0.00 | 0.00 | 0.00 | 90 | 1015.5 |
| 20260905145119 | 82 | 173 | 2.0 | 2.0 | 0.00 | 0.00 | 0.00 | 90 | 1015.2 |
| 20260905144614 | 82 | 219 | 2.0 | 2.0 | 0.00 | 0.00 | 0.00 | 92 | 1015.4 |
| 20260905144114 | 82 | 165 | 2.0 | 2.0 | 0.00 | 0.00 | 0.00 | 91 | 1015.4 |
| 20260905143614 | 82 | 268 | 1.0 | 1.0 | 0.00 | 0.00 | 0.00 | 90 | 1015.3 |
| 20260905143108 | 82 | 344 | 0.0 | 0.0 | 0.00 | 0.00 | 0.00 | 90 | 1015.3 |
| 20260905142608 | 82 | 167 | 1.0 | 1.0 | 0.00 | 0.00 | 0.00 | 91 | 1015.3 |
| 20260905142107 | 82 | 301 | 0.0 | 0.0 | 0.00 | 0.00 | 0.00 | 91 | 1015.3 |
| 20260905141607 | 81 | 347 | 0.0 | 0.0 | 0.00 | 0.00 | 0.00 | 91 | 1015.3 |
| 20260905141104 | 81 | 6 | 0.0 | 0.0 | 0.00 | 0.00 | 0.00 | 92 | 1015.3 |
| 20260905140559 | 81 | 164 | 2.0 | 2.0 | 0.00 | 0.00 | 0.00 | 92 | 1015.1 |
| 20260905140058 | 81 | 144 | 1.0 | 1.0 | 0.00 | 0.00 | 0.00 | 92 | 1015.4 |
| 20260905135553 | 80 | 233 | 1.0 | 1.0 | 0.00 | 0.00 | 0.00 | 92 | 1015.2 |